owner,sensor,date,latitude,longitude,vertical_datum,direction_of_sea_water_velocity,sea_water_speed,upward_sea_water_velocity,qcFlag 
TABS,ioos:station:wmo:42049:1,2012-06-01T00:00:00Z,28.3507,-96.0058,2.0,5.446741856,17.48895937,-99999.0,'11111222,11111222,99999999' 
TABS,ioos:station:wmo:42049:1,2012-06-01T00:30:00Z,28.3507,-96.0058,2.0,13.97576942,13.74692693,-99999.0,'11111222,11111222,99999999' 
TABS,ioos:station:wmo:42049:1,2012-06-01T01:00:00Z,28.3507,-96.0058,2.0,16.25384828,14.04120009,-99999.0,'11111222,11111222,99999999' 
TABS,ioos:station:wmo:42049:1,2012-06-01T01:30:00Z,28.3507,-96.0058,2.0,5.786868806,13.48873604,-99999.0,'11111222,11111222,99999999' 
TABS,ioos:station:wmo:42049:1,2012-06-01T02:00:00Z,28.3507,-96.0058,2.0,358.2757012,13.95632115,-99999.0,'11111222,11111222,99999999' 
TABS,ioos:station:wmo:42049:1,2012-06-01T02:30:00Z,28.3507,-96.0058,2.0,351.7730256,14.18599662,-99999.0,'11111222,11111222,99999999' 
TABS,ioos:station:wmo:42049:1,2012-06-01T03:00:00Z,28.3507,-96.0058,2.0,343.8674077,13.85563423,-99999.0,'11111222,11111222,99999999' 
TABS,ioos:station:wmo:42049:1,2012-06-01T03:30:00Z,28.3507,-96.0058,2.0,349.9395442,18.26079133,-99999.0,'11111222,11111222,99999999' 
TABS,ioos:station:wmo:42049:1,2012-06-01T04:00:00Z,28.3507,-96.0058,2.0,357.1628064,13.73684098,-99999.0,'11111222,11111222,99999999' 
TABS,ioos:station:wmo:42049:1,2012-06-01T04:30:00Z,28.3507,-96.0058,2.0,16.11777299,14.6248453,-99999.0,'11111222,11111222,99999999' 
TABS,ioos:station:wmo:42049:1,2012-06-01T05:00:00Z,28.3507,-96.0058,2.0,23.38018324,13.68351198,-99999.0,'11111222,11111222,99999999' 
TABS,ioos:station:wmo:42049:1,2012-06-01T05:30:00Z,28.3507,-96.0058,2.0,24.5443291,12.30155275,-99999.0,'11111222,11111222,99999999' 
TABS,ioos:station:wmo:42049:1,2012-06-01T06:00:00Z,28.3507,-96.0058,2.0,33.15342769,12.43415055,-99999.0,'11111222,11111222,99999999' 
TABS,ioos:station:wmo:42049:1,2012-06-01T06:30:00Z,28.3507,-96.0058,2.0,38.84495128,11.6068945,-99999.0,'11111222,11111222,99999999' 
TABS,ioos:station:wmo:42049:1,2012-06-01T07:00:00Z,28.3507,-96.0058,2.0,25.03143193,12.02988362,-99999.0,'11111222,11111222,99999999' 
TABS,ioos:station:wmo:42049:1,2012-06-01T07:30:00Z,28.3507,-96.0058,2.0,44.65892836,17.81233561,-99999.0,'11111222,11111222,99999999' 
TABS,ioos:station:wmo:42049:1,2012-06-01T08:00:00Z,28.3507,-96.0058,2.0,49.39553056,19.00636209,-99999.0,'11111222,11111222,99999999' 
TABS,ioos:station:wmo:42049:1,2012-06-01T08:30:00Z,28.3507,-96.0058,2.0,66.26111715,21.85955398,-99999.0,'11111222,11111222,99999999' 
TABS,ioos:station:wmo:42049:1,2012-06-01T09:00:00Z,28.3507,-96.0058,2.0,76.9852124,17.00687508,-99999.0,'11111222,11111222,99999999' 
TABS,ioos:station:wmo:42049:1,2012-06-01T09:30:00Z,28.3507,-96.0058,2.0,73.43312473,16.58863768,-99999.0,'11111222,11111222,99999999' 
TABS,ioos:station:wmo:42049:1,2012-06-01T10:00:00Z,28.3507,-96.0058,2.0,66.2812644,19.81364429,-99999.0,'11111222,11111222,99999999' 
TABS,ioos:station:wmo:42049:1,2012-06-01T10:30:00Z,28.3507,-96.0058,2.0,72.68076983,17.7026241,-99999.0,'11111222,11111222,99999999' 
TABS,ioos:station:wmo:42049:1,2012-06-01T11:00:00Z,28.3507,-96.0058,2.0,92.78858029,13.56606428,-99999.0,'11111222,11111222,99999999' 
TABS,ioos:station:wmo:42049:1,2012-06-01T11:30:00Z,28.3507,-96.0058,2.0,78.72045089,18.50748227,-99999.0,'11111222,11111222,99999999' 
TABS,ioos:station:wmo:42049:1,2012-06-01T12:00:00Z,28.3507,-96.0058,2.0,74.24124387,18.55751061,-99999.0,'11111222,11111222,99999999' 
TABS,ioos:station:wmo:42049:1,2012-06-01T12:30:00Z,28.3507,-96.0058,2.0,86.23758361,42.06065263,-99999.0,'11111222,11111222,99999999' 
TABS,ioos:station:wmo:42049:1,2012-06-01T13:00:00Z,28.3507,-96.0058,2.0,90.63769418,40.43250425,-99999.0,'11111222,11111222,99999999' 
TABS,ioos:station:wmo:42049:1,2012-06-01T13:30:00Z,28.3507,-96.0058,2.0,94.43724967,37.61273853,-99999.0,'11111222,11111222,99999999' 
TABS,ioos:station:wmo:42049:1,2012-06-01T14:00:00Z,28.3507,-96.0058,2.0,93.69945475,34.25137224,-99999.0,'11111222,11111222,99999999' 
TABS,ioos:station:wmo:42049:1,2012-06-01T14:30:00Z,28.3507,-96.0058,2.0,103.1917069,30.93635402,-99999.0,'11111222,11111222,99999999' 
TABS,ioos:station:wmo:42049:1,2012-06-01T15:00:00Z,28.3507,-96.0058,2.0,103.8106384,31.41830836,-99999.0,'11111222,11111222,99999999' 
TABS,ioos:station:wmo:42049:1,2012-06-01T15:30:00Z,28.3507,-96.0058,2.0,114.6251021,27.21512815,-99999.0,'11111222,11111222,99999999' 
TABS,ioos:station:wmo:42049:1,2012-06-01T16:00:00Z,28.3507,-96.0058,2.0,120.0809703,23.0435696,-99999.0,'11111222,11111222,99999999' 
TABS,ioos:station:wmo:42049:1,2012-06-01T16:30:00Z,28.3507,-96.0058,2.0,119.0193705,20.57280973,-99999.0,'11111222,11111222,99999999' 
TABS,ioos:station:wmo:42049:1,2012-06-01T17:00:00Z,28.3507,-96.0058,2.0,123.5854521,16.72146525,-99999.0,'11111222,11111222,99999999' 
TABS,ioos:station:wmo:42049:1,2012-06-01T17:30:00Z,28.3507,-96.0058,2.0,121.9968508,14.36191143,-99999.0,'11111222,11111222,99999999' 
TABS,ioos:station:wmo:42049:1,2012-06-01T18:00:00Z,28.3507,-96.0058,2.0,126.4571248,9.9962593,-99999.0,'11133222,11111222,99999999' 
TABS,ioos:station:wmo:42049:1,2012-06-01T18:30:00Z,28.3507,-96.0058,2.0,142.6775684,7.092221091,-99999.0,'11133222,11111222,99999999' 
TABS,ioos:station:wmo:42049:1,2012-06-01T19:00:00Z,28.3507,-96.0058,2.0,150.6278644,4.383480352,-99999.0,'11133222,11111222,99999999' 
TABS,ioos:station:wmo:42049:1,2012-06-01T19:30:00Z,28.3507,-96.0058,2.0,146.8008382,8.090599483,-99999.0,'11133222,11111222,99999999' 
TABS,ioos:station:wmo:42049:1,2012-06-01T20:00:00Z,28.3507,-96.0058,2.0,191.8068254,1.808258831,-99999.0,'11133222,11111222,99999999' 
TABS,ioos:station:wmo:42049:1,2012-06-01T20:30:00Z,28.3507,-96.0058,2.0,36.10122331,3.428308621,-99999.0,'11133222,11111222,99999999' 
TABS,ioos:station:wmo:42049:1,2012-06-01T21:00:00Z,28.3507,-96.0058,2.0,15.97889987,4.722456988,-99999.0,'11133222,11111222,99999999' 
TABS,ioos:station:wmo:42049:1,2012-06-01T21:30:00Z,28.3507,-96.0058,2.0,7.34208404,5.242985791,-99999.0,'11133222,11111222,99999999' 
TABS,ioos:station:wmo:42049:1,2012-06-01T22:00:00Z,28.3507,-96.0058,2.0,358.917246,5.290945095,-99999.0,'11133222,11111222,99999999' 
TABS,ioos:station:wmo:42049:1,2012-06-01T22:30:00Z,28.3507,-96.0058,2.0,2.103512361,9.536424907,-99999.0,'11133222,11111222,99999999' 
TABS,ioos:station:wmo:42049:1,2012-06-01T23:00:00Z,28.3507,-96.0058,2.0,1.039845405,10.47172383,-99999.0,'11111222,11111222,99999999' 
TABS,ioos:station:wmo:42049:1,2012-06-01T23:30:00Z,28.3507,-96.0058,2.0,5.041046523,10.47049665,-99999.0,'11111222,11111222,99999999' 
TABS,ioos:station:wmo:42049:1,2012-06-02T00:00:00Z,28.3507,-96.0058,2.0,11.83764355,9.798377417,-99999.0,'11133222,11111222,99999999' 
TABS,ioos:station:wmo:42049:1,2012-06-02T00:30:00Z,28.3507,-96.0058,2.0,2.642749573,11.71245491,-99999.0,'11111222,11111222,99999999' 
TABS,ioos:station:wmo:42049:1,2012-06-02T01:00:00Z,28.3507,-96.0058,2.0,11.45776296,12.93782439,-99999.0,'11111222,11111222,99999999' 
TABS,ioos:station:wmo:42049:1,2012-06-02T01:30:00Z,28.3507,-96.0058,2.0,2.689627891,11.08220646,-99999.0,'11111222,11111222,99999999' 
TABS,ioos:station:wmo:42049:1,2012-06-02T02:00:00Z,28.3507,-96.0058,2.0,6.173893868,17.48138438,-99999.0,'11111222,11111222,99999999' 
TABS,ioos:station:wmo:42049:1,2012-06-02T02:30:00Z,28.3507,-96.0058,2.0,10.99385445,17.40949454,-99999.0,'11111222,11111222,99999999' 
TABS,ioos:station:wmo:42049:1,2012-06-02T03:00:00Z,28.3507,-96.0058,2.0,25.37005344,16.08082709,-99999.0,'11111222,11111222,99999999' 
TABS,ioos:station:wmo:42049:1,2012-06-02T03:30:00Z,28.3507,-96.0058,2.0,18.21382089,18.0124679,-99999.0,'11111222,11111222,99999999' 
TABS,ioos:station:wmo:42049:1,2012-06-02T04:00:00Z,28.3507,-96.0058,2.0,31.40846343,17.90327624,-99999.0,'11111222,11111222,99999999' 
TABS,ioos:station:wmo:42049:1,2012-06-02T04:30:00Z,28.3507,-96.0058,2.0,34.76680331,18.74662903,-99999.0,'11111222,11111222,99999999' 
TABS,ioos:station:wmo:42049:1,2012-06-02T05:00:00Z,28.3507,-96.0058,2.0,36.27063043,22.17721353,-99999.0,'11111222,11111222,99999999' 
TABS,ioos:station:wmo:42049:1,2012-06-02T05:30:00Z,28.3507,-96.0058,2.0,31.11129611,17.99883607,-99999.0,'11111222,11111222,99999999' 
TABS,ioos:station:wmo:42049:1,2012-06-02T06:00:00Z,28.3507,-96.0058,2.0,38.58895401,13.8682407,-99999.0,'11111222,11111222,99999999' 
TABS,ioos:station:wmo:42049:1,2012-06-02T06:30:00Z,28.3507,-96.0058,2.0,31.62382792,16.22998768,-99999.0,'11111222,11111222,99999999' 
TABS,ioos:station:wmo:42049:1,2012-06-02T07:00:00Z,28.3507,-96.0058,2.0,49.27381,12.43014481,-99999.0,'11111222,11111222,99999999' 
TABS,ioos:station:wmo:42049:1,2012-06-02T07:30:00Z,28.3507,-96.0058,2.0,50.36827172,12.24422313,-99999.0,'11111222,11111222,99999999' 
TABS,ioos:station:wmo:42049:1,2012-06-02T08:00:00Z,28.3507,-96.0058,2.0,61.01981783,14.22060829,-99999.0,'11111222,11111222,99999999' 
TABS,ioos:station:wmo:42049:1,2012-06-02T08:30:00Z,28.3507,-96.0058,2.0,67.79596185,17.70277379,-99999.0,'11111222,11111222,99999999' 
TABS,ioos:station:wmo:42049:1,2012-06-02T09:00:00Z,28.3507,-96.0058,2.0,72.8699599,16.94155247,-99999.0,'11111222,11111222,99999999' 
TABS,ioos:station:wmo:42049:1,2012-06-02T09:30:00Z,28.3507,-96.0058,2.0,69.54935659,15.91294127,-99999.0,'11111222,11111222,99999999' 
TABS,ioos:station:wmo:42049:1,2012-06-02T10:00:00Z,28.3507,-96.0058,2.0,76.23495756,15.88626136,-99999.0,'11111222,11111222,99999999' 
TABS,ioos:station:wmo:42049:1,2012-06-02T10:30:00Z,28.3507,-96.0058,2.0,77.95278417,16.00244044,-99999.0,'11111222,11111222,99999999' 
TABS,ioos:station:wmo:42049:1,2012-06-02T11:00:00Z,28.3507,-96.0058,2.0,82.74298293,8.074682656,-99999.0,'11133222,11111222,99999999' 
TABS,ioos:station:wmo:42049:1,2012-06-02T11:30:00Z,28.3507,-96.0058,2.0,86.19283579,16.56655969,-99999.0,'11111222,11111222,99999999' 
TABS,ioos:station:wmo:42049:1,2012-06-02T12:00:00Z,28.3507,-96.0058,2.0,92.1756717,15.5412033,-99999.0,'11111222,11111222,99999999' 
TABS,ioos:station:wmo:42049:1,2012-06-02T12:30:00Z,28.3507,-96.0058,2.0,86.23890124,17.9887437,-99999.0,'11111222,11111222,99999999' 
TABS,ioos:station:wmo:42049:1,2012-06-02T13:00:00Z,28.3507,-96.0058,2.0,92.32345523,16.03318122,-99999.0,'11111222,11111222,99999999' 
TABS,ioos:station:wmo:42049:1,2012-06-02T13:30:00Z,28.3507,-96.0058,2.0,92.08611315,17.58165237,-99999.0,'11111222,11111222,99999999' 
TABS,ioos:station:wmo:42049:1,2012-06-02T14:00:00Z,28.3507,-96.0058,2.0,95.57147779,19.67293827,-99999.0,'11111222,11111222,99999999' 
TABS,ioos:station:wmo:42049:1,2012-06-02T14:30:00Z,28.3507,-96.0058,2.0,92.62319519,16.38717181,-99999.0,'11111222,11111222,99999999' 
TABS,ioos:station:wmo:42049:1,2012-06-02T15:00:00Z,28.3507,-96.0058,2.0,87.51494914,16.60561652,-99999.0,'11111222,11111222,99999999' 
TABS,ioos:station:wmo:42049:1,2012-06-02T15:30:00Z,28.3507,-96.0058,2.0,87.52193097,17.34622149,-99999.0,'11111222,11111222,99999999' 
TABS,ioos:station:wmo:42049:1,2012-06-02T16:00:00Z,28.3507,-96.0058,2.0,80.78988465,17.18150459,-99999.0,'11111222,11111222,99999999' 
TABS,ioos:station:wmo:42049:1,2012-06-02T16:30:00Z,28.3507,-96.0058,2.0,80.38613832,18.02312404,-99999.0,'11111222,11111222,99999999' 
TABS,ioos:station:wmo:42049:1,2012-06-02T17:00:00Z,28.3507,-96.0058,2.0,86.41758346,17.60440002,-99999.0,'11111222,11111222,99999999' 
TABS,ioos:station:wmo:42049:1,2012-06-02T17:30:00Z,28.3507,-96.0058,2.0,78.98210578,18.47045749,-99999.0,'11111222,11111222,99999999' 
TABS,ioos:station:wmo:42049:1,2012-06-02T18:00:00Z,28.3507,-96.0058,2.0,79.91548241,19.07469528,-99999.0,'11111222,11111222,99999999' 
TABS,ioos:station:wmo:42049:1,2012-06-02T18:30:00Z,28.3507,-96.0058,2.0,76.07960037,17.9986055,-99999.0,'11111222,11111222,99999999' 
TABS,ioos:station:wmo:42049:1,2012-06-02T19:00:00Z,28.3507,-96.0058,2.0,75.82539434,17.06970709,-99999.0,'11111222,11111222,99999999' 
TABS,ioos:station:wmo:42049:1,2012-06-02T19:30:00Z,28.3507,-96.0058,2.0,82.68047881,20.09374281,-99999.0,'11111222,11111222,99999999' 
TABS,ioos:station:wmo:42049:1,2012-06-02T20:00:00Z,28.3507,-96.0058,2.0,81.37465688,17.66984437,-99999.0,'11111222,11111222,99999999' 
TABS,ioos:station:wmo:42049:1,2012-06-02T20:30:00Z,28.3507,-96.0058,2.0,80.37702831,17.58747281,-99999.0,'11111222,11111222,99999999' 
TABS,ioos:station:wmo:42049:1,2012-06-02T21:00:00Z,28.3507,-96.0058,2.0,82.17152223,24.44784858,-99999.0,'11111222,11111222,99999999' 
TABS,ioos:station:wmo:42049:1,2012-06-02T21:30:00Z,28.3507,-96.0058,2.0,96.42750298,19.56296757,-99999.0,'11111222,11111222,99999999' 
TABS,ioos:station:wmo:42049:1,2012-06-02T22:00:00Z,28.3507,-96.0058,2.0,98.86579146,13.10659758,-99999.0,'11111222,11111222,99999999' 
TABS,ioos:station:wmo:42049:1,2012-06-02T22:30:00Z,28.3507,-96.0058,2.0,96.34017692,10.41369291,-99999.0,'11111222,11111222,99999999' 
TABS,ioos:station:wmo:42049:1,2012-06-02T23:00:00Z,28.3507,-96.0058,2.0,89.04316795,9.581336024,-99999.0,'11133222,11111222,99999999' 
TABS,ioos:station:wmo:42049:1,2012-06-02T23:30:00Z,28.3507,-96.0058,2.0,77.65486085,5.753025291,-99999.0,'11133222,11111222,99999999' 
TABS,ioos:station:wmo:42049:1,2012-06-03T00:00:00Z,28.3507,-96.0058,2.0,84.27163758,3.206009981,-99999.0,'11133222,11111222,99999999' 
TABS,ioos:station:wmo:42049:1,2012-06-03T00:30:00Z,28.3507,-96.0058,2.0,74.22808882,4.083748278,-99999.0,'11133222,11111222,99999999' 
TABS,ioos:station:wmo:42049:1,2012-06-03T01:00:00Z,28.3507,-96.0058,2.0,22.01557547,5.468765857,-99999.0,'11133222,11111222,99999999' 
TABS,ioos:station:wmo:42049:1,2012-06-03T01:30:00Z,28.3507,-96.0058,2.0,1.464836839,3.52115038,-99999.0,'11133222,11111222,99999999' 
TABS,ioos:station:wmo:42049:1,2012-06-03T02:00:00Z,28.3507,-96.0058,2.0,21.06151567,5.175760814,-99999.0,'11133222,11111222,99999999' 
TABS,ioos:station:wmo:42049:1,2012-06-03T02:30:00Z,28.3507,-96.0058,2.0,16.71594403,6.640609912,-99999.0,'11133222,11111222,99999999' 
TABS,ioos:station:wmo:42049:1,2012-06-03T03:00:00Z,28.3507,-96.0058,2.0,15.21733679,10.59135497,-99999.0,'11111222,11111222,99999999' 
TABS,ioos:station:wmo:42049:1,2012-06-03T03:30:00Z,28.3507,-96.0058,2.0,354.7525862,11.69903415,-99999.0,'11111222,11111222,99999999' 
TABS,ioos:station:wmo:42049:1,2012-06-03T04:00:00Z,28.3507,-96.0058,2.0,9.436482841,10.85691024,-99999.0,'11111222,11111222,99999999' 
TABS,ioos:station:wmo:42049:1,2012-06-03T04:30:00Z,28.3507,-96.0058,2.0,3.888110928,14.45326261,-99999.0,'11111222,11111222,99999999' 
TABS,ioos:station:wmo:42049:1,2012-06-03T05:00:00Z,28.3507,-96.0058,2.0,13.19015082,13.62956346,-99999.0,'11111222,11111222,99999999' 
TABS,ioos:station:wmo:42049:1,2012-06-03T05:30:00Z,28.3507,-96.0058,2.0,18.10476139,12.61453527,-99999.0,'11111222,11111222,99999999' 
TABS,ioos:station:wmo:42049:1,2012-06-03T06:00:00Z,28.3507,-96.0058,2.0,20.29549691,16.46200778,-99999.0,'11111222,11111222,99999999' 
TABS,ioos:station:wmo:42049:1,2012-06-03T06:30:00Z,28.3507,-96.0058,2.0,25.81685485,11.64196289,-99999.0,'11111222,11111222,99999999' 
TABS,ioos:station:wmo:42049:1,2012-06-03T07:00:00Z,28.3507,-96.0058,2.0,26.09634218,13.6628328,-99999.0,'11111222,11111222,99999999' 
TABS,ioos:station:wmo:42049:1,2012-06-03T07:30:00Z,28.3507,-96.0058,2.0,24.90175071,11.708514,-99999.0,'11111222,11111222,99999999' 
TABS,ioos:station:wmo:42049:1,2012-06-03T08:00:00Z,28.3507,-96.0058,2.0,30.76736676,12.99966923,-99999.0,'11111222,11111222,99999999' 
TABS,ioos:station:wmo:42049:1,2012-06-03T08:30:00Z,28.3507,-96.0058,2.0,37.63168118,17.75356866,-99999.0,'11111222,11111222,99999999' 
TABS,ioos:station:wmo:42049:1,2012-06-03T09:00:00Z,28.3507,-96.0058,2.0,46.8239144,18.66293117,-99999.0,'11111222,11111222,99999999' 
TABS,ioos:station:wmo:42049:1,2012-06-03T09:30:00Z,28.3507,-96.0058,2.0,53.45372317,15.58424846,-99999.0,'11111222,11111222,99999999' 
TABS,ioos:station:wmo:42049:1,2012-06-03T10:00:00Z,28.3507,-96.0058,2.0,50.41817471,16.4003689,-99999.0,'11111222,11111222,99999999' 
TABS,ioos:station:wmo:42049:1,2012-06-03T10:30:00Z,28.3507,-96.0058,2.0,55.95964307,16.32790556,-99999.0,'11111222,11111222,99999999' 
TABS,ioos:station:wmo:42049:1,2012-06-03T11:00:00Z,28.3507,-96.0058,2.0,65.42202208,10.96332523,-99999.0,'11111222,11111222,99999999' 
TABS,ioos:station:wmo:42049:1,2012-06-03T11:30:00Z,28.3507,-96.0058,2.0,55.9316305,15.95907265,-99999.0,'11111222,11111222,99999999' 
TABS,ioos:station:wmo:42049:1,2012-06-03T12:00:00Z,28.3507,-96.0058,2.0,52.07835841,16.12471705,-99999.0,'11111222,11111222,99999999' 
TABS,ioos:station:wmo:42049:1,2012-06-03T12:30:00Z,28.3507,-96.0058,2.0,58.40216531,15.65020447,-99999.0,'11111222,11111222,99999999' 
TABS,ioos:station:wmo:42049:1,2012-06-03T13:00:00Z,28.3507,-96.0058,2.0,53.58621326,27.13885959,-99999.0,'11111222,11111222,99999999' 
TABS,ioos:station:wmo:42049:1,2012-06-03T13:30:00Z,28.3507,-96.0058,2.0,68.02238473,26.56012989,-99999.0,'11111222,11111222,99999999' 
TABS,ioos:station:wmo:42049:1,2012-06-03T14:00:00Z,28.3507,-96.0058,2.0,68.16640539,26.40402431,-99999.0,'11111222,11111222,99999999' 
TABS,ioos:station:wmo:42049:1,2012-06-03T14:30:00Z,28.3507,-96.0058,2.0,67.05024317,21.77343795,-99999.0,'11111222,11111222,99999999' 
TABS,ioos:station:wmo:42049:1,2012-06-03T15:00:00Z,28.3507,-96.0058,2.0,61.07830881,22.62130854,-99999.0,'11111222,11111222,99999999' 
TABS,ioos:station:wmo:42049:1,2012-06-03T15:30:00Z,28.3507,-96.0058,2.0,69.1717526,22.41480314,-99999.0,'11111222,11111222,99999999' 
TABS,ioos:station:wmo:42049:1,2012-06-03T16:00:00Z,28.3507,-96.0058,2.0,71.92806818,16.47263488,-99999.0,'11111222,11111222,99999999' 
TABS,ioos:station:wmo:42049:1,2012-06-03T16:30:00Z,28.3507,-96.0058,2.0,73.20626776,17.99758039,-99999.0,'11111222,11111222,99999999' 
TABS,ioos:station:wmo:42049:1,2012-06-03T17:00:00Z,28.3507,-96.0058,2.0,73.44691958,18.77824539,-99999.0,'11111222,11111222,99999999' 
TABS,ioos:station:wmo:42049:1,2012-06-03T17:30:00Z,28.3507,-96.0058,2.0,69.60782742,15.55483205,-99999.0,'11111222,11111222,99999999' 
TABS,ioos:station:wmo:42049:1,2012-06-03T18:00:00Z,28.3507,-96.0058,2.0,76.3688511,16.1241713,-99999.0,'11111222,11111222,99999999' 
TABS,ioos:station:wmo:42049:1,2012-06-03T18:30:00Z,28.3507,-96.0058,2.0,71.85085573,15.21706936,-99999.0,'11111222,11111222,99999999' 
TABS,ioos:station:wmo:42049:1,2012-06-03T19:00:00Z,28.3507,-96.0058,2.0,62.00403559,17.19178001,-99999.0,'11111222,11111222,99999999' 
TABS,ioos:station:wmo:42049:1,2012-06-03T19:30:00Z,28.3507,-96.0058,2.0,67.51220533,17.36004608,-99999.0,'11111222,11111222,99999999' 
TABS,ioos:station:wmo:42049:1,2012-06-03T20:00:00Z,28.3507,-96.0058,2.0,66.20966077,14.87387307,-99999.0,'11111222,11111222,99999999' 
TABS,ioos:station:wmo:42049:1,2012-06-03T20:30:00Z,28.3507,-96.0058,2.0,67.39801817,12.35923137,-99999.0,'11111222,11111222,99999999' 
TABS,ioos:station:wmo:42049:1,2012-06-03T21:00:00Z,28.3507,-96.0058,2.0,76.13370477,12.26750586,-99999.0,'11111222,11111222,99999999' 
TABS,ioos:station:wmo:42049:1,2012-06-03T21:30:00Z,28.3507,-96.0058,2.0,58.52944267,11.24388723,-99999.0,'11111222,11111222,99999999' 
TABS,ioos:station:wmo:42049:1,2012-06-03T22:00:00Z,28.3507,-96.0058,2.0,65.96952735,9.405158159,-99999.0,'11133222,11111222,99999999' 
TABS,ioos:station:wmo:42049:1,2012-06-03T22:30:00Z,28.3507,-96.0058,2.0,71.99231156,11.45092573,-99999.0,'11111222,11111222,99999999' 
TABS,ioos:station:wmo:42049:1,2012-06-03T23:00:00Z,28.3507,-96.0058,2.0,82.19741275,9.649336765,-99999.0,'11133222,11111222,99999999' 
TABS,ioos:station:wmo:42049:1,2012-06-03T23:30:00Z,28.3507,-96.0058,2.0,72.78622525,10.23861807,-99999.0,'11111222,11111222,99999999' 
TABS,ioos:station:wmo:42049:1,2012-06-04T00:00:00Z,28.3507,-96.0058,2.0,67.58390494,6.923120684,-99999.0,'11133222,11111222,99999999' 
TABS,ioos:station:wmo:42049:1,2012-06-04T00:30:00Z,28.3507,-96.0058,2.0,82.37894651,5.730619513,-99999.0,'11133222,11111222,99999999' 
TABS,ioos:station:wmo:42049:1,2012-06-04T01:00:00Z,28.3507,-96.0058,2.0,86.88353194,5.518160926,-99999.0,'11133222,11111222,99999999' 
TABS,ioos:station:wmo:42049:1,2012-06-04T01:30:00Z,28.3507,-96.0058,2.0,86.33389456,4.378961064,-99999.0,'11133222,11111222,99999999' 
TABS,ioos:station:wmo:42049:1,2012-06-04T02:00:00Z,28.3507,-96.0058,2.0,66.78422159,4.363312962,-99999.0,'11133222,11111222,99999999' 
TABS,ioos:station:wmo:42049:1,2012-06-04T02:30:00Z,28.3507,-96.0058,2.0,16.35598931,3.83520534,-99999.0,'11133222,11111222,99999999' 
TABS,ioos:station:wmo:42049:1,2012-06-04T03:00:00Z,28.3507,-96.0058,2.0,26.00058228,8.622696794,-99999.0,'11133222,11111222,99999999' 
TABS,ioos:station:wmo:42049:1,2012-06-04T03:30:00Z,28.3507,-96.0058,2.0,32.58688867,9.506550373,-99999.0,'11133222,11111222,99999999' 
TABS,ioos:station:wmo:42049:1,2012-06-04T04:00:00Z,28.3507,-96.0058,2.0,15.19717779,7.782139809,-99999.0,'11133222,11111222,99999999' 
TABS,ioos:station:wmo:42049:1,2012-06-04T04:30:00Z,28.3507,-96.0058,2.0,49.56464427,8.618683194,-99999.0,'11133222,11111222,99999999' 
TABS,ioos:station:wmo:42049:1,2012-06-04T05:00:00Z,28.3507,-96.0058,2.0,41.12662456,8.164520807,-99999.0,'11133222,11111222,99999999' 
TABS,ioos:station:wmo:42049:1,2012-06-04T05:30:00Z,28.3507,-96.0058,2.0,51.86743798,9.16622605,-99999.0,'11133222,11111222,99999999' 
TABS,ioos:station:wmo:42049:1,2012-06-04T06:00:00Z,28.3507,-96.0058,2.0,53.73913045,8.656488896,-99999.0,'11133222,11111222,99999999' 
TABS,ioos:station:wmo:42049:1,2012-06-04T06:30:00Z,28.3507,-96.0058,2.0,49.85319027,10.53122025,-99999.0,'11111222,11111222,99999999' 
TABS,ioos:station:wmo:42049:1,2012-06-04T07:00:00Z,28.3507,-96.0058,2.0,55.66120917,12.00170821,-99999.0,'11111222,11111222,99999999' 
TABS,ioos:station:wmo:42049:1,2012-06-04T07:30:00Z,28.3507,-96.0058,2.0,49.90960324,11.0714859,-99999.0,'11111222,11111222,99999999' 
TABS,ioos:station:wmo:42049:1,2012-06-04T08:00:00Z,28.3507,-96.0058,2.0,44.8543151,11.11575459,-99999.0,'11111222,11111222,99999999' 
TABS,ioos:station:wmo:42049:1,2012-06-04T08:30:00Z,28.3507,-96.0058,2.0,51.56083744,10.95410882,-99999.0,'11111222,11111222,99999999' 
TABS,ioos:station:wmo:42049:1,2012-06-04T09:00:00Z,28.3507,-96.0058,2.0,53.63146626,12.34447245,-99999.0,'11111222,11111222,99999999' 
TABS,ioos:station:wmo:42049:1,2012-06-04T09:30:00Z,28.3507,-96.0058,2.0,53.88545465,10.62092275,-99999.0,'11111222,11111222,99999999' 
TABS,ioos:station:wmo:42049:1,2012-06-04T10:00:00Z,28.3507,-96.0058,2.0,55.25157735,14.2637758,-99999.0,'11111222,11111222,99999999' 
TABS,ioos:station:wmo:42049:1,2012-06-04T10:30:00Z,28.3507,-96.0058,2.0,45.50863311,14.34069036,-99999.0,'11111222,11111222,99999999' 
TABS,ioos:station:wmo:42049:1,2012-06-04T11:00:00Z,28.3507,-96.0058,2.0,33.94044661,13.97025769,-99999.0,'11111222,11111222,99999999' 
TABS,ioos:station:wmo:42049:1,2012-06-04T11:30:00Z,28.3507,-96.0058,2.0,37.68131516,17.37374168,-99999.0,'11111222,11111222,99999999' 
TABS,ioos:station:wmo:42049:1,2012-06-04T12:00:00Z,28.3507,-96.0058,2.0,34.19613066,15.39075697,-99999.0,'11111222,11111222,99999999' 
TABS,ioos:station:wmo:42049:1,2012-06-04T12:30:00Z,28.3507,-96.0058,2.0,77.96706767,11.65610999,-99999.0,'11111222,11111222,99999999' 
TABS,ioos:station:wmo:42049:1,2012-06-04T13:00:00Z,28.3507,-96.0058,2.0,81.99860266,10.70420945,-99999.0,'11111222,11111222,99999999' 
TABS,ioos:station:wmo:42049:1,2012-06-04T13:30:00Z,28.3507,-96.0058,2.0,76.3795086,13.036633,-99999.0,'11111222,11111222,99999999' 
TABS,ioos:station:wmo:42049:1,2012-06-04T14:00:00Z,28.3507,-96.0058,2.0,71.93158595,13.34824708,-99999.0,'11111222,11111222,99999999' 
TABS,ioos:station:wmo:42049:1,2012-06-04T14:30:00Z,28.3507,-96.0058,2.0,68.22388928,12.64213985,-99999.0,'11111222,11111222,99999999' 
TABS,ioos:station:wmo:42049:1,2012-06-04T15:00:00Z,28.3507,-96.0058,2.0,78.60151862,17.76029842,-99999.0,'11111222,11111222,99999999' 
TABS,ioos:station:wmo:42049:1,2012-06-04T15:30:00Z,28.3507,-96.0058,2.0,85.3871166,28.72303953,-99999.0,'11111222,11111222,99999999' 
TABS,ioos:station:wmo:42049:1,2012-06-04T16:00:00Z,28.3507,-96.0058,2.0,81.78936988,30.17934724,-99999.0,'11111222,11111222,99999999' 